MPEC 2004-Y63 : 2004 MN4

The following Minor Planet Electronic Circular may be linked-to from your own Web pages, but must not otherwise be redistributed electronically.


Read MPEC 2004-Y62 Read MPEC 2004-Y64


M.P.E.C. 2004-Y63                                Issued 2004 Dec. 26, 03:57 UT

     The Minor Planet Electronic Circulars contain information on unusual
         minor planets and routine data on comets.  They are published
   on behalf of Commission 20 of the International Astronomical Union by the
          Minor Planet Center, Smithsonian Astrophysical Observatory,
                          Cambridge, MA 02138, U.S.A.

                  Supported in part by the Brinson Foundation
             Prepared using the Tamkin Foundation Computer Network

                              MPC@CFA.HARVARD.EDU
          URL http://cfa-www.harvard.edu/iau/mpc.html  ISSN 1523-6714

                                   2004 MN4

                           Revision to MPEC 2004-Y60

Additional Observations:
     K04M04N  C2004 12 26.00134 00 47 32.86 -29 33 26.1          16.9 V EY063H36
     K04M04N  C2004 12 26.00461 00 47 34.97 -29 33 12.2          17.3 V EY063H36
     K04M04N  C2004 12 26.01803 00 47 43.38 -29 32 17.8          17.8 V EY063H36
     K04M04N  C2004 12 26.02625 00 47 48.57 -29 31 43.1          17.1 V EY063H36
     K04M04N  C2004 12 26.03827 00 47 56.21 -29 30 52.8          17.3 V EY063H36
     K04M04N  C2004 12 26.04647 00 48 01.35 -29 30 17.8          17.6 V EY063H36
     K04M04N  C2004 12 26.05109 00 48 05.26 -29 29 54.1          16.8 R EY063715
     K04M04N 2C2004 12 26.05415 00 48 07.01 -29 29 41.3          16.5 R EY063H06
     K04M04N  C2004 12 26.05426 00 48 06.18 -29 29 45.6          17.6 V EY063H36
     K04M04N  C2004 12 26.05506 00 48 07.73 -29 29 37.6          16.7 R EY063715
     K04M04N 2C2004 12 26.05557 00 48 07.97 -29 29 35.4          16.5 R EY063H06
     K04M04N 2C2004 12 26.05698 00 48 08.82 -29 29 30.0          16.5 R EY063H06
     K04M04N  C2004 12 26.05899 00 48 10.18 -29 29 21.1          16.8 R EY063715
     K04M04N  C2004 12 26.06287 00 48 12.61 -29 29 05.1          16.6 R EY063715
     K04M04N 2C2004 12 26.09078 00 48 29.87 -29 27 07.1          16.5 R EY063H06
     K04M04N 2C2004 12 26.09315 00 48 31.38 -29 26 57.4          16.6 R EY063H06
     K04M04N 2C2004 12 26.09547 00 48 32.89 -29 26 47.6          16.6 R EY063H06
     K04M04N  C2004 12 26.10275 00 48 37.94 -29 26 17.1          16.9 R EY063651
     K04M04N  C2004 12 26.10420 00 48 38.84 -29 26 10.9          16.9 R EY063651
     K04M04N  C2004 12 26.10510 00 48 39.42 -29 26 06.9          16.8 R EY063651
     K04M04N  C2004 12 26.10968 00 48 42.25 -29 25 47.4          16.7 R EY063651
     K04M04N  C2004 12 26.11073 00 48 42.91 -29 25 43.0          16.8 R EY063651
     K04M04N  C2004 12 26.11184 00 48 43.61 -29 25 38.1          16.9 R EY063651
     K04M04N  C2004 12 26.11846 00 48 47.75 -29 25 09.9          16.7 R EY063651
     K04M04N  C2004 12 26.11984 00 48 48.61 -29 25 03.7          16.5 R EY063651
     K04M04N  C2004 12 26.12074 00 48 49.17 -29 25 00.4          16.5 R EY063651
     K04M04N  C2004 12 26.12165 00 48 49.74 -29 24 56.2          17.0 R EY063651
     K04M04N  C2004 12 26.12302 00 48 50.59 -29 24 50.4          16.5 R EY063651
     K04M04N  C2004 12 26.13175 00 48 56.05 -29 24 13.2          17.0 R EY063651
     K04M04N  C2004 12 26.13293 00 48 56.81 -29 24 08.0          16.8 R EY063651
     K04M04N  C2004 12 26.13392 00 48 57.40 -29 24 04.0          16.9 R EY063651

Observer details:
651 Grasslands Observatory, Tucson.  Observer J. E. McGaha.  0.62-m f/5.1
    Newtonian reflector + CCD.
715 Journada Observatory.  Observer D. S. Dixon.  0.41-m f/5.2
    Schmidt-Cassegrain + CCD.
H06 New Mexico Skies Observatory.  Observer R. Hutsebaut.  0.30-m reflector
    + CCD.
H36 Sandlot Observatory, Scranton.  Observer G. Hug.  0.3-m f/6
    Schmidt-Cassegrain + CCD.

Orbital elements:
2004 MN4                                                             PHA 0.002A
Epoch 2005 Jan. 30.0 TT = JDT 2453400.5                 MPC
M 137.20658              (2000.0)            P               Q
n   1.11267171     Peri.  126.38481     +0.87285276     +0.48738954
a   0.9223407      Node   204.47329     -0.46426246     +0.81421831
e   0.1911482      Incl.    3.33126     -0.15029449     +0.31543617
P   0.89           H   19.5           G   0.15           U   5
Residuals in seconds of arc
040619 695  0.1+  0.1-    041223 E12  0.3-  0.1+    041225 683  0.2-  0.5-
040619 695  0.4+  0.4-    041223 E12  0.4+  0.1+    041225 683  0.0   0.1-
040619 695  0.1+  0.2-    041223 E12  0.4+  0.3-    041225 683  0.7-  0.5+
040620 695  0.3-  0.0     041223 E12  0.2+  0.1-    041225 683  0.9-  0.2-
040620 695  0.1-  0.0     041223 E12  0.4+  0.0     041225 683  0.2-  0.5-
040620 695  0.5-  0.3-    041223 E12  0.6+  0.2-    041225 683  0.4+  0.1-
041218 E12  0.0   0.7+    041223 E12  0.4+  0.0     041225 683  0.2+  0.2-
041218 E12  1.2+  0.2-    041223 E12  0.1+  0.2+    041225 683  0.0   0.4+
041218 E12  0.0   0.2-    041223 E12  0.9+  0.6-    041225 683  0.7-  1.0-
041218 E12  0.3-  0.3+    041223 E12  0.4+  0.2+    041225 683  0.5+  0.5-
041218 E12  0.2+  0.2-    041223 E12  0.0   0.0     041225 448  0.2+  0.1-
041218 E12  0.1+  0.3-    041223 E12  0.3+  0.2+    041225 448  0.2+  0.2-
041218 E12  0.1+  0.1-    041223 E12  0.1+  0.4+    041225 448  0.1+  0.2-
041218 E12  0.3+  0.3+    041223 E12  0.7+  0.6-    041226 H36  0.5-  0.5+
041218 E12  0.7+  0.1+    041223 E12  0.2+  0.5-    041226 H36  0.2+  0.9+
041218 E12  0.3+  0.5+    041223 E12  0.6+  0.4-    041226 H36  0.4-  0.5-
041218 E12  0.7+  0.2-    041223 E12  0.1+  0.1+    041226 H36  0.1-  0.1-
041218 E12  0.0   0.1-    041223 E12  0.2+  0.6-    041226 H36  1.0+  0.1-
041219 854  0.4-  1.0-    041223 E12  1.0+  0.6-    041226 H36  0.8+  0.4+
041219 854  1.3-  1.4+    041224 683  0.4-  0.5-    041226 715  0.0   0.4+
041219 854  0.8+  0.5+    041224 683  0.7+  0.3-    041226 H06  0.5-  0.9+
041219 854  0.7-  0.6-    041224 699  0.5-  0.1-    041226 H36  0.1-  0.2-
041219 854  0.1-  0.4-    041224 699  0.4-  0.2+    041226 715  0.2-  0.4+
041219 474  0.2+  0.2-    041224 699  0.4-  0.2+    041226 H06  0.4+  0.9+
041219 474  0.1+  0.1-    041224 699  0.5-  0.3-    041226 H06  0.0   0.4+
041219 474  0.1-  0.3-    041224 699  1.0+  1.5-    041226 715  0.3-  0.4+
041219 474  0.1+  0.1-    041224 699  1.4-  0.9+    041226 715  0.2-  0.2+
041220 673  0.7-  0.6-    041224 699  0.5-  0.5-    041226 H06  1.1-  0.8+
041220 673  0.4-  0.1-    041224 699  0.6-  0.5+    041226 H06  0.7-  0.5+
041220 673  0.5-  0.4-    041224 620  0.4+  0.1+    041226 H06  0.1+  0.4+
041220 673  0.2-  0.0     041224 620  0.2+  0.4+    041226 651  0.3+  0.3-
041222 E12  0.5+  0.1+    041224 620  0.3+  0.2+    041226 651  0.2+  0.2-
041222 E12  0.5+  0.1-    041225 H06  1.0-  0.3+    041226 651  0.4+  0.0
041222 E12  0.4-  0.3-    041225 H06  0.8-  0.4+    041226 651  0.1+  0.0
041222 E12  0.9+  0.1+    041225 683  0.1+  0.1+    041226 651  0.1+  0.1-
041223 704 (2.5-  2.3+)   041225 683  0.0   0.1+    041226 651  0.2+  0.1+
041223 704  0.2-  0.9+    041225 H06  0.4-  0.1+    041226 651  0.3+  0.1+
041223 704 (2.3-  0.4+)   041225 683  0.4-  0.9-    041226 651  0.3+  0.5+
041223 704  0.4-  0.7-    041225 683  0.6-  0.2+    041226 651  0.2+  0.1-
041223 704  1.0-  1.5+    041225 683  0.1+  0.2-    041226 651  0.2+  0.2+
041223 704  0.3-  0.3-    041225 683  0.4+  0.6-    041226 651  0.2+  0.1+
041223 704  1.5-  0.7+    041225 683  0.4-  0.0     041226 651  0.5+  0.2+
041223 704  0.8-  0.3-    041225 683  0.0   0.1-    041226 651  0.2+  0.0
041223 E12  0.8+  0.3-    041225 683  0.7-  0.4-

Ephemeris:
2004 MN4                 a,e,i = 0.92, 0.19, 3                   q = 0.7460
Date    TT    R. A. (2000) Decl.     Delta      r     Elong.  Phase     V
2004 12 21    23 46.78   -34 42.3    0.096    0.963    74.8    99.6    17.9
2004 12 31    01 36.89   -23 29.3    0.105    0.994    92.6    81.4    17.4
2005 01 10    02 46.15   -12 17.4    0.129    1.021   103.4    69.5    17.5
2005 01 20    03 31.77   -03 52.0    0.160    1.045   108.0    63.6    17.9
2005 01 30    04 06.06   +02 15.0    0.196    1.064   108.7    61.2    18.3
2005 02 09    04 35.03   +06 49.9    0.235    1.080   107.2    60.8    18.7
2005 02 19    05 01.79   +10 21.3    0.275    1.091   104.6    61.3    19.1
2005 03 01    05 27.67   +13 04.9    0.314    1.097   101.4    62.3    19.4
2005 03 11    05 53.35   +15 10.8    0.353    1.099    97.8    63.6    19.7
2005 03 21    06 19.25   +16 44.8    0.389    1.096    94.2    65.1    19.9
2005 03 31    06 45.39   +17 50.7    0.422    1.088    90.5    66.7    20.2
2005 04 10    07 11.74   +18 31.5    0.450    1.076    86.9    68.5    20.3
2005 04 20    07 38.28   +18 49.6    0.472    1.059    83.3    70.4    20.5
2005 04 30    08 04.77   +18 47.8    0.488    1.038    79.7    72.7    20.6
2005 05 10    08 31.05   +18 29.1    0.497    1.013    76.1    75.4    20.6
2005 05 20    08 56.87   +17 57.0    0.497    0.985    72.5    78.7    20.7
2005 05 30    09 21.80   +17 16.5    0.488    0.953    68.8    82.6    20.7
2005 06 09    09 45.33   +16 34.2    0.470    0.920    64.8    87.6    20.8
2005 06 19    10 06.55   +15 59.2    0.442    0.885    60.3    93.9    20.8

Gareth V. Williams           (C) Copyright 2004 MPC           M.P.E.C. 2004-Y63

Read MPEC 2004-Y62 Read MPEC 2004-Y64


Our Web policy. Index to the CBAT/MPC/ICQ pages.

MPC